STARLINK-32866, 62858

Orbit data source: Space-Track

STARLINK-32866, 62858 is a payload satellite owned by SpaceX/Seattle (US) in LEO that was launched on Sat, 01 Feb 2025 UTC via an FALCON 9 launch vehicle from the Air Force Western Test Range (AFWTR). Payload-class satellites include a variety of spacecraft equipped with specific instruments for various scientific and technological missions. These include communications satellites like Starlink; space stations such as the ISS; scientific satellites like the Hubble; Earth observation satellites from companies like Planet Labs, Umbra, and HawkEye 360; GPS; miniature CubeSats for education and research; and military/defense satellites.

Loading next visibility...
Identifier
62858, 2025-022E
Orbit
LEO
Country
Flag of USUS
Related business
Manufacturer
SpaceX/Seattle
Mission
Operational Commercial Communications
Bus & Motor
STARLINK V2M, Unknown motor
Mass
730 kg wet, ~700 kg dry
Launch date (UTC)
2025-02-01 (11 months ago)
Launch vehicle
FALCON 9
Launch site
Air Force Western Test Range (AFWTR)
Object type
Payload
Rocket body
Debris
Shape & HBR
Box + 2 Pan, 17.7 m
Radar Cross Section
33.884 m², Large (>1 m²)

Expand to show TLE details & history
Last TLE update: 13 hours ago

TLE from 13 hours ago
0 STARLINK-32866
1 62858U 25022E   25352.17541921  .00018506  00000-0  63522-3 0  9998
2 62858  53.1584 147.9743 0001212  63.2426 296.8698 15.30208208 49427
Epoch: 2025-12-18T04:12Z
TLE epoch observation values (Epoch: 2025-12-18T04:12:36.219Z)
Latitude
-0.00009°
Longitude
-2.21137°
Altitude
475.715 km
Speed
7.629 km/s
True Right ascension
09h 51m 53s
True Declination
0° 00' 00"
Sunlit
Object was in full shadow at epoch
Visualization orbit readout
Latitude
Unknown
Longitude
Unknown
Altitude
Unknown
Speed
Unknown
Apparent Right ascension
Unknown
Apparent Declination
Unknown
Sunlit
N/A
Visualization observer readout
Local Sidereal Time
16:11:17
Azimuth
Unknown
Elevation
Unknown
Doppler factor
Unknown
Orbital elements
Apogee altitude
476.278 km
Perigee altitude
474.617 km
Semi-major axis
6,853.584 km
Eccentricity
0.00012
Inclination
53.1584°
RAAN
147.9743°
Arg. of periapsis
63.2426°
True anomaly
296.85741°
Mean anomaly
296.8698°
Eccentric anomaly
296.86361°
Mean motion
3.82531 °/min
Orbital period
94.11 mins
BSTAR
0.00063522
Loading maneuver chart data...
Computing Atmospheric mass density...
Loading historical data...
Loading historical data...
Loading historical data...
Loading historical data...
Loading historical data...
Loading historical data...
Loading historical data...

Documentation

Showing up to 5 results
|